Regional Weather Roundup
Issued by NWS Charleston, SC

Current Version | Previous Version | Text Only | Print | Product List | Glossary Off
Versions: 1 2 3 4 5 6 7 8 9 10 11 12 13 14 15 16 17 18 19 20 21 22 23 24 25 26 27 28 29 30 31 32 33 34 35 36 37 38 39 40 41 42 43 44 45 46 47 48 49 50
000 ASUS42 KCHS 270627 RWRCHS REGIONAL WEATHER ROUNDUP NATIONAL WEATHER SERVICE CHARLESTON SC 200 AM EDT THU JUL 27 2017 NOTE: "FAIR" INDICATES FEW OR NO CLOUDS BELOW 12,000 FEET WITH NO SIGNIFICANT WEATHER AND/OR OBSTRUCTIONS TO VISIBILITY. NOT ALL STATIONS ARE QUALITY CONTROLLED. USE DATA WITH CAUTION... ESPECIALLY DEWPOINT OBSERVATIONS. SCZ027-030-031-034>040-042>050-270700- ...SOUTHEAST SOUTH CAROLINA... CITY SKY/WX TMP DP RH WIND PRES REMARKS N CHARLESTON PTCLDY 75 73 93 N5 30.06F 6HR MIN TEMP: 75; 6HR MAX TEMP: 82; WATERFRONT PRK N/A 80 77 90 VRB2 30.03F JOHNS ISLAND FAIR 75 75 100 CALM 30.05S PINOPOLIS N/A 77 75 94 E5 30.00F MONCKS CORNER FAIR 72 72 100 CALM 30.05F FOG SUMMERVILLE FAIR 73 73 100 CALM 30.06F BEAUFORT MCAS PTCLDY 79 76 90 CALM 30.05F 6HR MIN TEMP: 77; 6HR MAX TEMP: 82; BEAUFORT ARPT FAIR 77 73 88 E3 30.04S HILTON HEAD IS CLOUDY 79 75 89 SE5 30.04F WALTERBORO CLEAR 73 73 100 CALM 30.06F ALLENDALE NOT AVBL ...SOUTHERN MIDLANDS AND PEE DEE... CITY SKY/WX TMP DP RH WIND PRES REMARKS GEORGETOWN FAIR 75 73 94 CALM 30.07F KINGSTREE FAIR 72 70 94 CALM 30.07F FOG ORANGEBURG PTCLDY 75 73 93 E3 30.08S 6HR MIN TEMP: 75; 6HR MAX TEMP: 80; BARNWELL FAIR 75 75 100 CALM 30.06F AIKEN FAIR 70 70 100 CALM 30.11F MANNING FAIR 72 72 100 CALM 30.07F COLUMBIA PTCLDY 76 73 91 E3 30.08S 6HR MIN TEMP: 77; 6HR MAX TEMP: 83; SUMTER CLEAR 74 72 91 CALM 30.06F 6HR MIN TEMP: 74; 6HR MAX TEMP: 81; 6HR PCP: TRACE; FLORENCE CLEAR 74 73 97 CALM 30.09F 6HR MIN TEMP: 73; 6HR MAX TEMP: 81; MYRTLE BEACH MOCLDY 81 73 78 E9 30.07F N MYRTLE BEACH PTCLDY 79 74 84 VRB5 30.06F 6HR MIN TEMP: 79; 6HR MAX TEMP: 81; $$ GAZ063-065-086>088-099>101-113>116-118-119-134>141-150-270700- ...SOUTHEAST GEORGIA... CITY SKY/WX TMP DP RH WIND PRES REMARKS SAVANNAH ARPT PTCLDY N/A N/A N/A SE3 30.05F HUNTER AAF MOCLDY 76 73 91 CALM 30.02F 6HR MIN TEMP: 75; 6HR MAX TEMP: 80; 6HR PCP: 0.02; FORT STEWART MOCLDY 74 72 94 CALM 30.02F 6HR MIN TEMP: 74; 6HR MAX TEMP: 80; STATESBORO CLEAR 74 74 100 CALM 30.05S SYLVANIA CLEAR 73 73 100 CALM 30.06F CLAXTON FAIR 74 74 98 CALM 30.05F FOG ...CSRA...CENTRAL AND FAR SOUTHEAST GEORGIA... CITY SKY/WX TMP DP RH WIND PRES REMARKS THOMSON CLOUDY 72 71 98 CALM 30.13F FOG AUGUSTA-BUSH CLEAR 74 72 93 CALM 30.07S FOG 6HR MIN TEMP: 74; 6HR MAX TEMP: 80; AUGUSTA-DANIEL CLEAR 76 72 87 CALM 30.08F SWAINSBORO FAIR 73 73 100 CALM 30.06F VIDALIA CLEAR 73 73 100 CALM 30.06S EASTMAN FAIR 73 73 100 CALM 30.07F FOG HAZLEHURST CLOUDY 76 76 100 NE3 30.04S ALMA CLOUDY 76 74 93 CALM 30.04R 6HR MIN TEMP: 74; 6HR MAX TEMP: 78; WAYCROSS CLOUDY 78 78 100 CALM 30.03S JESUP NOT AVBL BAXLEY MOCLDY 75 75 100 E3 30.04S BRUNSWICK CLOUDY 77 77 100 E3 30.04F SAINT SIMONS CLOUDY 76 75 97 E10 30.02F 6HR MIN TEMP: 77; 6HR MAX TEMP: 79; 6HR PCP: 0.08; $$ SCZ027-028-034-036>038-045-046-048>050-GAZ119-141-270700- ...LAKE AND SUPPLEMENTAL COASTAL OBSERVATIONS... STATION/POSITION TIME TEMP WIND PRES WAVE SWELL AIR SEA DIR/SP/G HT/PER HT/PER/DIR (UTC) (F) (DEG/KT/KT) (MB) (FT/S) (FT/S/D) WINYAH BAY 0545 80 80/ 6 1018.0S LAKE MURRAY 0530 78 90/ 2/ 3 1017.9F ACE BASIN NERRS 0530 75 CALM 1018.0S FORT PULASKI 0600 77 84 130/ 3/ 3 1017.4 SAPELO ISLAND 0600 76 110/ 1 1017.0 $$ ANZ835-935-AMZ111-154-330-350-352-354-370-450-454-472-270700- ...C-MAN AND BUOY OBSERVATIONS... STATION/POSITION TIME TEMP WIND PRES WAVE SWELL AIR SEA DIR/SP/G HT/PER HT/PER/DIR (UTC) (F) (DEG/KT/KT) (MB) (FT/S) (FT/S/D) BUOY 41004 0610 80 82 150/ 2/ 4 1016.9 BUOY 41008 0550 78 80 70/ 8/ 8 1016.6F 2/10 2/110/10 FOLLY BEACH CMAN 0600 81 100/ 6/ 8 1018.0F CAPERS NEARSHORE 0608 79 84 120/ 4/ 6 1017.2F FRIPP NEARSHORE 0608 80 84 150/ 8/ 14 1016.9F STATION/POSITION TIME TEMP WIND PRES WAVE SWELL AIR SEA DIR/SP/G HT/PER HT/PER/DIR (UTC) (F) (DEG/KT/KT) (MB) (FT/S) (FT/S/D) 5E ST. MARYS GA 0600 79 N/A 2/11 FRYING PAN BUOY 0610 82 82 90/ 12/ 14 1017.3 BUOY 41025 0550 80 83 80/ 6/ 8 1018.6F 3/ 8 3/ 30/ 8 CAPE LOOKOUT NC 0600 79 80/ 7/ 8 1018.3F BUOY 41002 0550 81 83 270/ 6/ 8 1017.7S 2/ 6 2/110/ 6 BUOY 41010 0610 85 85 150/ 12/ 14 1016.8 ST AUGUSTINE FL 0600 80 75 200/ 5/ 6 1016.8R $$

USA.gov is the U.S. government's official web portal to all federal, state and local government web resources and services.